sat.trackr.live / text

‹ back to catalog

STARLINK-6320

NORAD 57336 · 2023-099J

PAYLOAD ACTIVE UNKNOWN

§ Identity

Operator
Country
US
Launch date
2023-07-16
Launch site
AFETR
Launch vehicle
Mass (kg)
RCS (m²)

Purposes: comms

External: N2YO · Heavens-Above · Gunter

§ Orbital elements

Epoch: 2026-05-25T03:00:54.228096Z

Period
94.27 min
Inclination
43.0006°
Eccentricity
0.0001096
Mean motion
15.27574288 rev/d
Perigee alt
482.3 km
Apogee alt
483.8 km
Semi-major
6,861.2 km
B*
5.8349e-6
RAAN
177.5345°
Arg perigee
276.0576°
Mean anomaly
84.0151°
Rev number
15,780

§ Raw data

STARLINK-63201 57336U 23099J   26145.12562764 -.00000101  00000+0  58349-5 0  99942 57336  43.0006 177.5345 0001096 276.0576  84.0151 15.27574288157809

JSON: /api/v1/satellites/57336 · /tle

For live sub-satellite position, see the globe view (requires WebGL).

§ Visibility from observer

Set your observer location to see the next 7 days of passes ≥ 10°. The values pass through the URL so the page stays shareable.

No JS? Fill the form by hand. The geolocation button needs JavaScript.